Location: Long Geng
(2.6167°N, 114.1333°E)
Time: 20:52:35
(UTC+00:00)

Aureole 1 Rocket - Pass Details

Date: 14 May 2021
Orbit: 378 x 1372 km, 73.9° (Epoch: 16 June)

Event Time Altitude Azimuth Distance (km) Brightness Sun altitude
Rises 20:58:16 0° 355° (N) 2,906 6.7 -18.3°
Reaches altitude 10° 21:00:17 10° 359° (N) 2,127 6.0 -17.9°
Maximum altitude 21:05:04 62° 79° (E) 930 4.2 -16.8°
Drops below altitude 10° 21:11:26 10° 159° (SSE) 2,808 6.4 -15.3°
Sets 21:14:24 0° 162° (SSE) 3,920 7.1 -14.6°
